| time (UTC) | temp F | wind direction | speed MPH | gust MPH | rain 1hr in | rain 24hr in | rain mn in | humidity % | barometer mb |
| 20260508211203 | 74 | 259 | 3.0 | 10.0 | 0.00 | 0.00 | 0.00 | 46 | 1014.1 |
| 20260508210603 | 74 | 260 | 3.0 | 8.0 | 0.00 | 0.00 | 0.00 | 48 | 1014.1 |
| 20260508210003 | 74 | 255 | 3.0 | 8.0 | 0.00 | 0.00 | 0.00 | 49 | 1014.3 |
| 20260508205424 | 74 | 224 | 4.0 | 10.0 | 0.00 | 0.00 | 0.00 | 47 | 1014.3 |
| 20260508204803 | 74 | 233 | 3.0 | 10.0 | 0.00 | 0.00 | 0.00 | 47 | 1014.3 |
| 20260508204203 | 74 | 236 | 3.0 | 10.0 | 0.00 | 0.00 | 0.00 | 48 | 1014.2 |
| 20260508203603 | 74 | 226 | 2.0 | 8.0 | 0.00 | 0.00 | 0.00 | 46 | 1014.3 |
| 20260508203003 | 74 | 227 | 2.0 | 8.0 | 0.00 | 0.00 | 0.00 | 47 | 1014.3 |
| 20260508202403 | 74 | 230 | 2.0 | 7.0 | 0.00 | 0.00 | 0.00 | 45 | 1014.4 |
| 20260508201824 | 74 | 226 | 2.0 | 7.0 | 0.00 | 0.00 | 0.00 | 38 | 1014.5 |
| 20260508201203 | 74 | 208 | 2.0 | 9.0 | 0.00 | 0.00 | 0.00 | 40 | 1014.5 |
| 20260508200624 | 73 | 239 | 2.0 | 9.0 | 0.00 | 0.00 | 0.00 | 36 | 1014.6 |
| 20260508200003 | 73 | 254 | 2.0 | 8.0 | 0.00 | 0.00 | 0.00 | 37 | 1014.6 |
| 20260508195403 | 73 | 263 | 3.0 | 10.0 | 0.00 | 0.00 | 0.00 | 41 | 1014.6 |
| 20260508194803 | 73 | 290 | 4.0 | 8.0 | 0.00 | 0.00 | 0.00 | 37 | 1014.6 |
| 20260508194203 | 73 | 279 | 4.0 | 8.0 | 0.00 | 0.00 | 0.00 | 38 | 1014.5 |
| 20260508193603 | 73 | 260 | 3.0 | 8.0 | 0.00 | 0.00 | 0.00 | 35 | 1014.5 |
| 20260508193003 | 73 | 242 | 3.0 | 10.0 | 0.00 | 0.00 | 0.00 | 38 | 1014.5 |
| 20260508192424 | 73 | 254 | 4.0 | 10.0 | 0.00 | 0.00 | 0.00 | 36 | 1014.6 |
| 20260508191803 | 73 | 248 | 4.0 | 10.0 | 0.00 | 0.00 | 0.00 | 37 | 1014.6 |
| 20260508191203 | 73 | 250 | 3.0 | 10.0 | 0.00 | 0.00 | 0.00 | 41 | 1014.6 |
| 20260508190603 | 72 | 236 | 2.0 | 10.0 | 0.00 | 0.00 | 0.00 | 41 | 1014.7 |
| 20260508190024 | 72 | 246 | 3.0 | 11.0 | 0.00 | 0.00 | 0.00 | 41 | 1014.6 |
| 20260508185403 | 72 | 231 | 2.0 | 11.0 | 0.00 | 0.00 | 0.00 | 46 | 1014.6 |
| 20260508184803 | 72 | 212 | 1.0 | 7.0 | 0.00 | 0.00 | 0.00 | 44 | 1014.6 |
| 20260508184203 | 72 | 203 | 2.0 | 7.0 | 0.00 | 0.00 | 0.00 | 44 | 1014.5 |
| 20260508183603 | 72 | 208 | 1.0 | 5.0 | 0.00 | 0.00 | 0.00 | 43 | 1014.5 |
| 20260508183003 | 71 | 227 | 1.0 | 5.0 | 0.00 | 0.00 | 0.00 | 44 | 1014.6 |
| 20260508182403 | 71 | 117 | 1.0 | 5.0 | 0.00 | 0.00 | 0.00 | 46 | 1014.6 |
| 20260508181803 | 71 | 170 | 1.0 | 5.0 | 0.00 | 0.00 | 0.00 | 45 | 1014.6 |
| 20260508181203 | 71 | 295 | 1.0 | 5.0 | 0.00 | 0.00 | 0.00 | 49 | 1014.7 |
| 20260508180624 | 70 | 331 | 1.0 | 5.0 | 0.00 | 0.00 | 0.00 | 48 | 1014.8 |
| 20260508180003 | 70 | 331 | 2.0 | 6.0 | 0.00 | 0.00 | 0.00 | 49 | 1014.7 |
| 20260508175403 | 70 | 341 | 1.0 | 6.0 | 0.00 | 0.00 | 0.00 | 47 | 1014.8 |
| 20260508174803 | 71 | 122 | 0.0 | 2.0 | 0.00 | 0.00 | 0.00 | 47 | 1014.8 |
| 20260508174203 | 71 | 118 | 0.0 | 2.0 | 0.00 | 0.00 | 0.00 | 44 | 1014.8 |
| 20260508173603 | 71 | 104 | 0.0 | 1.0 | 0.00 | 0.00 | 0.00 | 40 | 1014.7 |
| 20260508173024 | 71 | 104 | 0.0 | 2.0 | 0.00 | 0.00 | 0.00 | 41 | 1014.7 |
| 20260508172424 | 71 | 83 | 0.0 | 4.0 | 0.00 | 0.00 | 0.00 | 44 | 1014.6 |
| 20260508171803 | 71 | 76 | 1.0 | 4.0 | 0.00 | 0.00 | 0.00 | 45 | 1014.7 |
| 20260508171203 | 71 | 103 | 1.0 | 5.0 | 0.00 | 0.00 | 0.00 | 42 | 1014.7 |
| 20260508170624 | 71 | 143 | 2.0 | 7.0 | 0.00 | 0.00 | 0.00 | 42 | 1014.6 |
| 20260508170024 | 71 | 156 | 1.0 | 7.0 | 0.00 | 0.00 | 0.00 | 41 | 1014.6 |
| 20260508165403 | 70 | 125 | 1.0 | 6.0 | 0.00 | 0.00 | 0.00 | 42 | 1014.6 |
| 20260508164803 | 69 | 122 | 1.0 | 4.0 | 0.00 | 0.00 | 0.00 | 43 | 1014.6 |
| 20260508164203 | 69 | 117 | 1.0 | 4.0 | 0.00 | 0.00 | 0.00 | 47 | 1014.6 |
| 20260508163624 | 68 | 113 | 1.0 | 4.0 | 0.00 | 0.00 | 0.00 | 44 | 1014.7 |
| 20260508163003 | 66 | 113 | 0.0 | 4.0 | 0.00 | 0.00 | 0.00 | 50 | 1014.6 |
| 20260508162403 | 65 | 113 | 0.0 | 4.0 | 0.00 | 0.00 | 0.00 | 53 | 1014.5 |
| 20260508161803 | 64 | 108 | 1.0 | 4.0 | 0.00 | 0.00 | 0.00 | 53 | 1014.7 |
| 20260508161203 | 63 | 119 | 1.0 | 6.0 | 0.00 | 0.00 | 0.00 | 58 | 1014.7 |
| 20260508160603 | 63 | 112 | 1.0 | 6.0 | 0.00 | 0.00 | 0.00 | 55 | 1014.8 |
| 20260508160003 | 62 | 109 | 2.0 | 8.0 | 0.00 | 0.00 | 0.00 | 56 | 1014.7 |
| 20260508155403 | 62 | 105 | 2.0 | 8.0 | 0.00 | 0.00 | 0.00 | 53 | 1014.8 |
| 20260508154824 | 61 | 108 | 3.0 | 11.0 | 0.00 | 0.00 | 0.00 | 53 | 1014.7 |
| 20260508154203 | 60 | 106 | 4.0 | 12.0 | 0.00 | 0.00 | 0.00 | 55 | 1014.6 |
| 20260508153603 | 60 | 101 | 4.0 | 12.0 | 0.00 | 0.00 | 0.00 | 56 | 1014.7 |
| 20260508153003 | 60 | 100 | 4.0 | 13.0 | 0.00 | 0.00 | 0.00 | 56 | 1014.7 |
| 20260508152424 | 59 | 101 | 5.0 | 13.0 | 0.00 | 0.00 | 0.00 | 55 | 1014.7 |
| 20260508151803 | 59 | 97 | 5.0 | 12.0 | 0.00 | 0.00 | 0.00 | 54 | 1014.7 |
| 20260508151203 | 58 | 94 | 5.0 | 15.0 | 0.00 | 0.00 | 0.00 | 55 | 1014.5 |
| 20260508150603 | 58 | 97 | 6.0 | 15.0 | 0.00 | 0.00 | 0.00 | 58 | 1014.5 |
| 20260508150003 | 58 | 99 | 6.0 | 14.0 | 0.00 | 0.00 | 0.00 | 55 | 1014.3 |
| 20260508145403 | 58 | 101 | 6.0 | 14.0 | 0.00 | 0.00 | 0.00 | 58 | 1014.3 |
| 20260508144803 | 57 | 101 | 6.0 | 18.0 | 0.00 | 0.00 | 0.00 | 56 | 1014.4 |
| 20260508144224 | 57 | 101 | 6.0 | 18.0 | 0.00 | 0.00 | 0.00 | 58 | 1014.4 |
| 20260508143603 | 57 | 100 | 6.0 | 14.0 | 0.00 | 0.00 | 0.00 | 57 | 1014.4 |
| 20260508143003 | 57 | 99 | 6.0 | 14.0 | 0.00 | 0.00 | 0.00 | 56 | 1014.4 |
| 20260508142403 | 56 | 100 | 6.0 | 14.0 | 0.00 | 0.00 | 0.00 | 56 | 1014.4 |
| 20260508141824 | 56 | 99 | 6.0 | 13.0 | 0.00 | 0.00 | 0.00 | 57 | 1014.4 |
| 20260508141203 | 56 | 97 | 6.0 | 14.0 | 0.00 | 0.00 | 0.00 | 55 | 1014.3 |
| 20260508140603 | 56 | 95 | 6.0 | 14.0 | 0.00 | 0.00 | 0.00 | 56 | 1014.3 |
| 20260508140003 | 56 | 99 | 6.0 | 14.0 | 0.00 | 0.00 | 0.00 | 57 | 1014.3 |
| 20260508135424 | 56 | 103 | 5.0 | 14.0 | 0.00 | 0.00 | 0.00 | 57 | 1014.2 |
| 20260508134803 | 56 | 101 | 5.0 | 13.0 | 0.00 | 0.00 | 0.00 | 57 | 1014.1 |
| 20260508134203 | 56 | 101 | 6.0 | 14.0 | 0.00 | 0.00 | 0.00 | 57 | 1014.1 |
| 20260508133603 | 56 | 101 | 6.0 | 14.0 | 0.00 | 0.00 | 0.00 | 54 | 1014.1 |
| 20260508133003 | 56 | 98 | 6.0 | 13.0 | 0.00 | 0.00 | 0.00 | 55 | 1014.0 |
| 20260508132424 | 56 | 93 | 6.0 | 13.0 | 0.00 | 0.00 | 0.00 | 55 | 1014.1 |
| 20260508131824 | 56 | 95 | 6.0 | 15.0 | 0.00 | 0.00 | 0.00 | 54 | 1014.1 |
| 20260508131203 | 56 | 99 | 7.0 | 15.0 | 0.00 | 0.00 | 0.00 | 54 | 1014.0 |
| 20260508130603 | 56 | 98 | 6.0 | 13.0 | 0.00 | 0.00 | 0.00 | 54 | 1014.0 |
| 20260508130003 | 56 | 102 | 7.0 | 13.0 | 0.00 | 0.00 | 0.00 | 53 | 1014.0 |
| 20260508125403 | 56 | 102 | 7.0 | 15.0 | 0.00 | 0.00 | 0.00 | 54 | 1014.0 |
| 20260508124803 | 56 | 101 | 7.0 | 15.0 | 0.00 | 0.00 | 0.00 | 56 | 1014.0 |
| 20260508124203 | 56 | 99 | 6.0 | 16.0 | 0.00 | 0.00 | 0.00 | 56 | 1014.0 |
| 20260508123603 | 56 | 99 | 6.0 | 15.0 | 0.00 | 0.00 | 0.00 | 55 | 1014.0 |
| 20260508123003 | 56 | 99 | 7.0 | 15.0 | 0.00 | 0.00 | 0.00 | 56 | 1014.0 |
| 20260508122403 | 56 | 99 | 7.0 | 14.0 | 0.00 | 0.00 | 0.00 | 54 | 1014.0 |
| 20260508121803 | 57 | 100 | 7.0 | 15.0 | 0.00 | 0.00 | 0.00 | 55 | 1014.0 |
| 20260508121203 | 57 | 99 | 7.0 | 15.0 | 0.00 | 0.00 | 0.00 | 55 | 1014.0 |
| 20260508120603 | 57 | 97 | 7.0 | 20.0 | 0.00 | 0.00 | 0.00 | 57 | 1014.0 |
| 20260508120024 | 57 | 98 | 7.0 | 15.0 | 0.00 | 0.00 | 0.00 | 56 | 1014.0 |
| 20260508115403 | 57 | 99 | 7.0 | 19.0 | 0.00 | 0.00 | 0.00 | 56 | 1014.0 |
| 20260508114803 | 57 | 100 | 7.0 | 19.0 | 0.00 | 0.00 | 0.00 | 56 | 1014.0 |
| 20260508114203 | 57 | 100 | 6.0 | 13.0 | 0.00 | 0.00 | 0.00 | 57 | 1014.0 |
| 20260508113603 | 57 | 101 | 6.0 | 14.0 | 0.00 | 0.00 | 0.00 | 57 | 1014.0 |
| 20260508113004 | 57 | 101 | 5.0 | 14.0 | 0.00 | 0.00 | 0.00 | 57 | 1013.9 |
| 20260508112403 | 57 | 98 | 5.0 | 14.0 | 0.00 | 0.00 | 0.00 | 57 | 1013.9 |
| 20260508111803 | 57 | 97 | 5.0 | 11.0 | 0.00 | 0.00 | 0.00 | 55 | 1014.0 |
| 20260508111203 | 57 | 99 | 5.0 | 12.0 | 0.00 | 0.00 | 0.00 | 56 | 1014.0 |
| 20260508110603 | 57 | 99 | 5.0 | 12.0 | 0.00 | 0.00 | 0.00 | 56 | 1013.9 |
| 20260508110024 | 57 | 99 | 5.0 | 11.0 | 0.00 | 0.00 | 0.00 | 59 | 1013.9 |
| 20260508105403 | 57 | 100 | 5.0 | 14.0 | 0.00 | 0.00 | 0.00 | 61 | 1013.9 |
| 20260508104824 | 58 | 98 | 5.0 | 14.0 | 0.00 | 0.00 | 0.00 | 59 | 1013.9 |
| 20260508104224 | 58 | 100 | 5.0 | 14.0 | 0.00 | 0.00 | 0.00 | 60 | 1014.0 |
| 20260508103603 | 58 | 99 | 5.0 | 13.0 | 0.00 | 0.00 | 0.00 | 60 | 1014.0 |
| 20260508103003 | 58 | 102 | 5.0 | 12.0 | 0.00 | 0.00 | 0.00 | 60 | 1014.0 |
| 20260508102403 | 58 | 104 | 6.0 | 12.0 | 0.00 | 0.00 | 0.00 | 63 | 1014.1 |
| 20260508101803 | 58 | 102 | 5.0 | 12.0 | 0.00 | 0.00 | 0.00 | 63 | 1014.2 |
| 20260508101203 | 58 | 102 | 5.0 | 12.0 | 0.00 | 0.00 | 0.00 | 64 | 1014.1 |
| 20260508100624 | 58 | 99 | 5.0 | 15.0 | 0.00 | 0.00 | 0.00 | 64 | 1014.2 |
| 20260508100003 | 58 | 101 | 5.0 | 12.0 | 0.00 | 0.00 | 0.00 | 65 | 1014.2 |
| 20260508095403 | 58 | 100 | 6.0 | 14.0 | 0.00 | 0.00 | 0.00 | 64 | 1014.1 |
| 20260508094803 | 58 | 99 | 6.0 | 14.0 | 0.00 | 0.00 | 0.00 | 64 | 1014.0 |
| 20260508094203 | 58 | 100 | 6.0 | 12.0 | 0.00 | 0.00 | 0.00 | 65 | 1014.0 |
| 20260508093603 | 58 | 102 | 6.0 | 12.0 | 0.00 | 0.00 | 0.00 | 65 | 1014.1 |
| 20260508093003 | 59 | 102 | 6.0 | 13.0 | 0.00 | 0.00 | 0.00 | 65 | 1014.0 |
| 20260508092403 | 59 | 101 | 5.0 | 12.0 | 0.00 | 0.00 | 0.00 | 66 | 1014.2 |
| 20260508091803 | 59 | 101 | 6.0 | 13.0 | 0.00 | 0.00 | 0.00 | 67 | 1013.9 |
| 20260508091203 | 59 | 101 | 5.0 | 13.0 | 0.00 | 0.00 | 0.00 | 66 | 1013.8 |
| 20260508090603 | 59 | 100 | 5.0 | 14.0 | 0.00 | 0.00 | 0.00 | 67 | 1013.8 |
| 20260508090003 | 59 | 99 | 5.0 | 12.0 | 0.00 | 0.00 | 0.00 | 68 | 1013.8 |
| 20260508085424 | 59 | 98 | 6.0 | 14.0 | 0.00 | 0.00 | 0.00 | 69 | 1013.9 |
| 20260508084824 | 59 | 100 | 6.0 | 15.0 | 0.00 | 0.00 | 0.00 | 68 | 1013.8 |
| 20260508084203 | 60 | 100 | 6.0 | 14.0 | 0.00 | 0.00 | 0.00 | 68 | 1013.7 |
| 20260508083603 | 60 | 102 | 6.0 | 13.0 | 0.00 | 0.00 | 0.00 | 70 | 1013.8 |
| 20260508083003 | 60 | 99 | 6.0 | 13.0 | 0.00 | 0.00 | 0.00 | 69 | 1013.8 |
| 20260508082424 | 60 | 97 | 5.0 | 13.0 | 0.00 | 0.00 | 0.00 | 70 | 1013.8 |
| 20260508081803 | 60 | 97 | 5.0 | 13.0 | 0.00 | 0.00 | 0.00 | 72 | 1013.9 |
| 20260508081203 | 59 | 97 | 5.0 | 12.0 | 0.00 | 0.00 | 0.00 | 72 | 1013.9 |
| 20260508080603 | 60 | 99 | 5.0 | 13.0 | 0.00 | 0.00 | 0.00 | 74 | 1013.9 |
| 20260508080003 | 60 | 100 | 5.0 | 13.0 | 0.00 | 0.00 | 0.00 | 75 | 1013.9 |
| 20260508075403 | 60 | 100 | 5.0 | 12.0 | 0.00 | 0.00 | 0.00 | 75 | 1013.8 |
| 20260508074803 | 60 | 101 | 5.0 | 12.0 | 0.00 | 0.00 | 0.00 | 76 | 1013.8 |
| 20260508074224 | 60 | 101 | 5.0 | 12.0 | 0.00 | 0.00 | 0.00 | 77 | 1013.8 |
| 20260508073603 | 60 | 100 | 5.0 | 12.0 | 0.00 | 0.00 | 0.00 | 76 | 1013.8 |
| 20260508073003 | 60 | 98 | 5.0 | 12.0 | 0.00 | 0.00 | 0.00 | 76 | 1013.8 |
| 20260508072403 | 60 | 97 | 5.0 | 12.0 | 0.00 | 0.00 | 0.00 | 77 | 1013.9 |
| 20260508071803 | 60 | 96 | 5.0 | 12.0 | 0.00 | 0.00 | 0.00 | 78 | 1013.9 |
| 20260508071224 | 60 | 96 | 5.0 | 12.0 | 0.00 | 0.00 | 0.00 | 79 | 1013.9 |
| 20260508070603 | 60 | 94 | 5.0 | 12.0 | 0.00 | 0.00 | 0.00 | 79 | 1014.0 |
| 20260508070003 | 61 | 96 | 5.0 | 13.0 | 0.00 | 0.00 | 0.00 | 79 | 1014.0 |
| 20260508065403 | 61 | 99 | 4.0 | 12.0 | 0.00 | 0.00 | 0.00 | 80 | 1014.0 |
| 20260508064803 | 61 | 94 | 5.0 | 13.0 | 0.00 | 0.00 | 0.00 | 80 | 1014.0 |
| 20260508064203 | 60 | 94 | 5.0 | 13.0 | 0.00 | 0.00 | 0.00 | 81 | 1014.1 |
| 20260508063603 | 60 | 97 | 5.0 | 14.0 | 0.00 | 0.00 | 0.00 | 81 | 1014.1 |
| 20260508063024 | 60 | 97 | 5.0 | 14.0 | 0.00 | 0.00 | 0.00 | 82 | 1014.1 |
| 20260508062403 | 61 | 99 | 5.0 | 12.0 | 0.00 | 0.00 | 0.00 | 82 | 1014.3 |
| 20260508061803 | 61 | 99 | 6.0 | 13.0 | 0.00 | 0.00 | 0.00 | 83 | 1014.2 |
| 20260508061203 | 61 | 98 | 6.0 | 13.0 | 0.00 | 0.00 | 0.00 | 83 | 1014.2 |
| 20260508060603 | 61 | 102 | 5.0 | 12.0 | 0.00 | 0.00 | 0.00 | 84 | 1014.3 |
| 20260508060003 | 61 | 103 | 3.0 | 11.0 | 0.00 | 0.00 | 0.00 | 84 | 1014.2 |
| 20260508055403 | 61 | 109 | 3.0 | 12.0 | 0.00 | 0.00 | 0.00 | 84 | 1014.3 |
| 20260508054803 | 61 | 104 | 3.0 | 12.0 | 0.00 | 0.00 | 0.00 | 85 | 1014.4 |
| 20260508054203 | 61 | 99 | 3.0 | 8.0 | 0.00 | 0.00 | 0.00 | 86 | 1014.5 |
| 20260508053603 | 61 | 101 | 3.0 | 8.0 | 0.00 | 0.00 | 0.00 | 86 | 1014.4 |
| 20260508053003 | 61 | 123 | 3.0 | 8.0 | 0.00 | 0.00 | 0.00 | 86 | 1014.4 |
| 20260508052403 | 61 | 164 | 1.0 | 6.0 | 0.00 | 0.00 | 0.00 | 86 | 1014.5 |
| 20260508051803 | 61 | 225 | 0.0 | 2.0 | 0.00 | 0.00 | 0.00 | 85 | 1014.5 |
| 20260508051224 | 61 | 225 | 0.0 | 2.0 | 0.00 | 0.00 | 0.00 | 85 | 1014.6 |
| 20260508050624 | 61 | 225 | 0.0 | 2.0 | 0.00 | 0.00 | 0.00 | 85 | 1014.5 |
| 20260508050003 | 61 | 0 | 0.0 | 0.0 | 0.00 | 0.00 | 0.00 | 85 | 1014.6 |
| 20260508045403 | 62 | 0 | 0.0 | 0.0 | 0.00 | 0.00 | 0.00 | 85 | 1014.6 |
| 20260508044803 | 62 | 0 | 0.0 | 0.0 | 0.00 | 0.00 | 0.00 | 84 | 1014.6 |
| 20260508044203 | 62 | 0 | 0.0 | 0.0 | 0.00 | 0.00 | 0.00 | 84 | 1014.7 |
| 20260508043603 | 62 | 0 | 0.0 | 0.0 | 0.00 | 0.00 | 0.00 | 84 | 1014.6 |
| 20260508043003 | 62 | 0 | 0.0 | 0.0 | 0.00 | 0.00 | 0.00 | 84 | 1014.6 |
| 20260508042424 | 62 | 0 | 0.0 | 0.0 | 0.00 | 0.00 | 0.00 | 83 | 1014.5 |
| 20260508041803 | 63 | 225 | 0.0 | 1.0 | 0.00 | 0.00 | 0.00 | 83 | 1014.5 |
| 20260508041203 | 63 | 225 | 0.0 | 2.0 | 0.00 | 0.00 | 0.00 | 83 | 1014.4 |
| 20260508040603 | 63 | 225 | 0.0 | 2.0 | 0.00 | 0.00 | 0.00 | 82 | 1014.3 |
| 20260508040024 | 63 | 225 | 0.0 | 2.0 | 0.00 | 0.00 | 0.00 | 82 | 1014.3 |
| 20260508035424 | 63 | 225 | 0.0 | 2.0 | 0.00 | 0.00 | 0.00 | 81 | 1014.1 |
| 20260508034803 | 64 | 225 | 0.0 | 2.0 | 0.00 | 0.00 | 0.00 | 81 | 1014.1 |
| 20260508034203 | 64 | 225 | 0.0 | 2.0 | 0.00 | 0.00 | 0.00 | 80 | 1014.0 |
| 20260508033603 | 64 | 225 | 1.0 | 3.0 | 0.00 | 0.00 | 0.00 | 79 | 1014.0 |
| 20260508033003 | 65 | 225 | 1.0 | 4.0 | 0.00 | 0.00 | 0.00 | 78 | 1014.0 |
| 20260508032403 | 65 | 224 | 1.0 | 4.0 | 0.00 | 0.00 | 0.00 | 78 | 1014.0 |
| 20260508031803 | 66 | 224 | 1.0 | 4.0 | 0.00 | 0.00 | 0.00 | 77 | 1014.0 |
| 20260508031203 | 66 | 231 | 1.0 | 4.0 | 0.00 | 0.00 | 0.00 | 76 | 1013.9 |
| 20260508030624 | 66 | 244 | 1.0 | 4.0 | 0.00 | 0.00 | 0.00 | 76 | 1013.8 |
| 20260508030003 | 67 | 265 | 1.0 | 4.0 | 0.00 | 0.00 | 0.00 | 75 | 1013.8 |
| 20260508025424 | 67 | 248 | 1.0 | 4.0 | 0.00 | 0.00 | 0.00 | 74 | 1013.7 |
| 20260508024803 | 68 | 234 | 1.0 | 4.0 | 0.00 | 0.00 | 0.00 | 74 | 1013.7 |
| 20260508024203 | 68 | 234 | 0.0 | 2.0 | 0.00 | 0.00 | 0.00 | 72 | 1013.5 |
| 20260508023624 | 69 | 234 | 1.0 | 3.0 | 0.00 | 0.00 | 0.00 | 72 | 1013.5 |
| 20260508023003 | 69 | 237 | 1.0 | 4.0 | 0.00 | 0.00 | 0.00 | 71 | 1013.5 |
| 20260508022403 | 70 | 250 | 1.0 | 3.0 | 0.00 | 0.00 | 0.00 | 70 | 1013.6 |
| 20260508021803 | 70 | 257 | 0.0 | 3.0 | 0.00 | 0.00 | 0.00 | 69 | 1013.6 |
| 20260508021203 | 70 | 258 | 0.0 | 3.0 | 0.00 | 0.00 | 0.00 | 69 | 1013.6 |
| 20260508020603 | 70 | 255 | 1.0 | 4.0 | 0.00 | 0.00 | 0.00 | 67 | 1013.6 |
| 20260508020003 | 71 | 250 | 1.0 | 4.0 | 0.00 | 0.00 | 0.00 | 66 | 1013.7 |
| 20260508015403 | 71 | 244 | 1.0 | 3.0 | 0.00 | 0.00 | 0.00 | 66 | 1013.8 |
| 20260508014803 | 71 | 244 | 0.0 | 3.0 | 0.00 | 0.00 | 0.00 | 64 | 1013.7 |
| 20260508014203 | 72 | 244 | 0.0 | 3.0 | 0.00 | 0.00 | 0.00 | 66 | 1013.7 |
| 20260508013603 | 72 | 246 | 1.0 | 4.0 | 0.00 | 0.00 | 0.00 | 64 | 1013.7 |
| 20260508013003 | 72 | 255 | 1.0 | 4.0 | 0.00 | 0.00 | 0.00 | 64 | 1013.8 |
| 20260508012403 | 72 | 284 | 0.0 | 2.0 | 0.00 | 0.00 | 0.00 | 63 | 1013.8 |
| 20260508011803 | 72 | 269 | 2.0 | 7.0 | 0.00 | 0.00 | 0.00 | 63 | 1013.8 |
| 20260508011203 | 72 | 264 | 2.0 | 7.0 | 0.00 | 0.00 | 0.00 | 64 | 1013.9 |
| 20260508010603 | 73 | 256 | 2.0 | 5.0 | 0.00 | 0.00 | 0.00 | 64 | 1013.9 |
| 20260508010003 | 73 | 263 | 2.0 | 7.0 | 0.00 | 0.00 | 0.00 | 66 | 1013.9 |
| 20260508005403 | 73 | 277 | 2.0 | 7.0 | 0.00 | 0.00 | 0.00 | 64 | 1014.0 |
| 20260508004824 | 73 | 260 | 2.0 | 7.0 | 0.00 | 0.00 | 0.00 | 65 | 1014.0 |
| 20260508004224 | 73 | 258 | 2.0 | 7.0 | 0.00 | 0.00 | 0.00 | 63 | 1014.0 |
| 20260508003603 | 73 | 260 | 1.0 | 5.0 | 0.00 | 0.00 | 0.00 | 62 | 1014.2 |
| 20260508003003 | 73 | 251 | 1.0 | 5.0 | 0.00 | 0.00 | 0.00 | 63 | 1014.1 |
| 20260508002403 | 72 | 280 | 2.0 | 7.0 | 0.00 | 0.00 | 0.00 | 63 | 1014.2 |
| 20260508001803 | 72 | 286 | 2.0 | 7.0 | 0.00 | 0.00 | 0.00 | 61 | 1014.1 |
| 20260508001203 | 73 | 268 | 2.0 | 8.0 | 0.00 | 0.00 | 0.00 | 61 | 1014.0 |
| 20260508000624 | 73 | 268 | 2.0 | 8.0 | 0.00 | 0.00 | 0.00 | 59 | 1014.1 |
| 20260508000003 | 73 | 285 | 2.0 | 7.0 | 0.00 | 0.00 | 0.00 | 62 | 1014.1 |
| 20260507235403 | 72 | 272 | 1.0 | 6.0 | 0.00 | 0.00 | 0.00 | 61 | 1014.0 |
| 20260507234803 | 72 | 245 | 4.0 | 12.0 | 0.00 | 0.00 | 0.00 | 60 | 1014.0 |
| 20260507234203 | 72 | 260 | 4.0 | 12.0 | 0.00 | 0.00 | 0.00 | 60 | 1014.1 |
| 20260507233603 | 72 | 296 | 2.0 | 6.0 | 0.00 | 0.00 | 0.00 | 62 | 1014.0 |
| 20260507233003 | 73 | 284 | 2.0 | 6.0 | 0.00 | 0.00 | 0.00 | 62 | 1014.1 |
| 20260507232403 | 73 | 270 | 1.0 | 4.0 | 0.00 | 0.00 | 0.00 | 63 | 1014.2 |
| 20260507231803 | 73 | 250 | 1.0 | 6.0 | 0.00 | 0.00 | 0.00 | 61 | 1014.2 |
| 20260507231203 | 73 | 250 | 1.0 | 7.0 | 0.00 | 0.00 | 0.00 | 62 | 1014.3 |
| 20260507230603 | 73 | 230 | 3.0 | 8.0 | 0.00 | 0.00 | 0.00 | 61 | 1014.4 |
| 20260507230003 | 73 | 239 | 3.0 | 8.0 | 0.00 | 0.00 | 0.00 | 62 | 1014.4 |
| 20260507225403 | 72 | 264 | 2.0 | 8.0 | 0.00 | 0.00 | 0.00 | 62 | 1014.5 |
| 20260507224803 | 72 | 257 | 3.0 | 8.0 | 0.00 | 0.00 | 0.00 | 64 | 1014.5 |
| 20260507224224 | 72 | 268 | 4.0 | 11.0 | 0.00 | 0.00 | 0.00 | 62 | 1014.5 |
| 20260507223603 | 72 | 268 | 4.0 | 11.0 | 0.00 | 0.00 | 0.00 | 64 | 1014.7 |
| 20260507223003 | 72 | 244 | 3.0 | 11.0 | 0.00 | 0.00 | 0.00 | 64 | 1014.8 |
| 20260507222403 | 72 | 231 | 4.0 | 11.0 | 0.00 | 0.00 | 0.00 | 65 | 1014.9 |
| 20260507221803 | 72 | 249 | 4.0 | 11.0 | 0.00 | 0.00 | 0.00 | 65 | 1014.9 |
| 20260507221203 | 72 | 253 | 3.0 | 8.0 | 0.00 | 0.00 | 0.00 | 65 | 1014.8 |
| 20260507220624 | 72 | 248 | 3.0 | 8.0 | 0.00 | 0.00 | 0.00 | 66 | 1014.9 |
| 20260507220024 | 72 | 254 | 4.0 | 8.0 | 0.00 | 0.00 | 0.00 | 66 | 1015.1 |
| 20260507215424 | 72 | 273 | 4.0 | 8.0 | 0.00 | 0.00 | 0.00 | 67 | 1015.1 |
| 20260507214803 | 72 | 256 | 3.0 | 8.0 | 0.00 | 0.00 | 0.00 | 65 | 1015.1 |
| 20260507214203 | 72 | 275 | 1.0 | 8.0 | 0.00 | 0.00 | 0.00 | 67 | 1015.3 |
| 20260507213603 | 72 | 289 | 2.0 | 11.0 | 0.00 | 0.00 | 0.00 | 66 | 1015.4 |
| 20260507213003 | 72 | 269 | 2.0 | 8.0 | 0.00 | 0.00 | 0.00 | 65 | 1015.4 |
| 20260507212403 | 72 | 257 | 2.0 | 8.0 | 0.00 | 0.00 | 0.00 | 68 | 1015.5 |
| 20260507211803 | 72 | 260 | 2.0 | 8.0 | 0.00 | 0.00 | 0.00 | 67 | 1015.5 |